GW5656 Weather Reports


time (UTC)temp
F
wind
direction
speed
knots
gust
knots
rain 1hr
in
rain 24hr
in
rain mn
in
humidity
%
barometer
mb
20260504024049 45 190 0.9 2.6 0.00 0.00 0.00 61 1018.9
20260504023546 45 153 0.0 1.7 0.00 0.00 0.00 62 1019.1
20260504023042 45 225 1.7 1.7 0.00 0.00 0.00 62 1019.0
20260504022538 45 253 0.9 1.7 0.00 0.00 0.00 60 1018.9
20260504022034 45 210 1.7 2.6 0.00 0.00 0.00 62 1018.8
20260504021532 45 284 4.3 4.3 0.00 0.00 0.00 63 1018.9
20260504021028 45 127 0.0 2.6 0.00 0.00 0.00 62 1018.8
20260504020525 45 187 1.7 4.3 0.00 0.00 0.00 60 1018.8
20260504020022 44 272 0.9 2.6 0.00 0.00 0.00 58 1018.6
20260504015518 44 165 1.7 1.7 0.00 0.00 0.00 64 1018.7
20260504015014 44 275 2.6 3.5 0.00 0.00 0.00 60 1018.6
20260504014510 44 216 1.7 1.7 0.00 0.00 0.00 60 1018.5
20260504014008 43 312 1.7 1.7 0.00 0.00 0.00 63 1018.2
20260504013506 43 285 0.0 1.7 0.00 0.00 0.00 64 1018.3
20260504013001 43 229 0.9 0.9 0.00 0.00 0.00 61 1018.4
20260504012500 43 278 0.0 1.7 0.00 0.00 0.00 60 1018.2
20260504011958 44 242 0.9 0.9 0.00 0.00 0.00 61 1018.1
20260504011454 44 208 0.0 1.7 0.00 0.00 0.00 59 1017.9
20260504010949 44 180 0.0 0.9 0.00 0.00 0.00 60 1018.0
20260504010446 45 231 0.0 0.9 0.00 0.00 0.00 59 1018.0
20260504005942 45 192 0.9 1.7 0.00 0.00 0.00 58 1018.1
20260504005439 46 287 0.9 1.7 0.00 0.00 0.00 58 1017.9
20260504004936 46 271 0.9 1.7 0.00 0.00 0.00 56 1017.6
20260504004434 46 315 0.0 0.9 0.00 0.00 0.00 55 1017.8
20260504003931 47 216 0.9 0.9 0.00 0.00 0.00 59 1017.7
20260504003427 48 269 0.0 1.7 0.00 0.00 0.00 57 1017.6
20260504002924 48 218 0.0 0.9 0.00 0.00 0.00 54 1017.5
20260504002421 49 294 1.7 1.7 0.00 0.00 0.00 53 1017.5
20260504001918 49 214 1.7 1.7 0.00 0.00 0.00 57 1017.5
20260504001416 50 206 0.9 0.9 0.00 0.00 0.00 53 1017.4
20260504000912 51 223 0.9 1.7 0.00 0.00 0.00 51 1017.5
20260504000409 51 296 0.0 1.7 0.00 0.00 0.00 47 1017.6
20260503235907 52 241 0.9 1.7 0.00 0.00 0.00 45 1017.4
20260503235404 53 288 0.9 1.7 0.00 0.00 0.00 44 1017.5
20260503234902 53 95 0.0 1.7 0.00 0.00 0.00 44 1017.5
20260503234359 54 226 1.7 1.7 0.00 0.00 0.00 42 1017.4
20260503233857 55 110 0.0 0.0 0.00 0.00 0.00 39 1017.4
20260503233353 55 304 0.0 2.6 0.00 0.00 0.00 39 1017.6
20260503232849 56 343 0.0 1.7 0.00 0.00 0.00 37 1017.5
20260503232346 58 318 1.7 2.6 0.00 0.00 0.00 32 1017.5
20260503231845 59 345 1.7 3.5 0.00 0.00 0.00 31 1017.5
20260503231341 59 195 1.7 2.6 0.00 0.00 0.00 30 1017.5
20260503230837 59 292 0.9 2.6 0.00 0.00 0.00 31 1017.3
20260503230334 59 351 3.5 4.3 0.00 0.00 0.00 29 1017.5
20260503225832 60 321 1.7 3.5 0.00 0.00 0.00 32 1017.4
20260503225328 60 329 0.0 5.2 0.00 0.00 0.00 30 1017.5
20260503224824 60 339 1.7 3.5 0.00 0.00 0.00 28 1017.4
20260503224322 60 277 1.7 2.6 0.00 0.00 0.00 29 1017.3
20260503223819 60 307 2.6 6.1 0.00 0.00 0.00 31 1017.3
20260503223317 60 324 5.2 5.2 0.00 0.00 0.00 30 1017.0
20260503222812 60 329 3.5 4.3 0.00 0.00 0.00 30 1017.3
20260503222311 60 322 5.2 5.2 0.00 0.00 0.00 30 1017.2
20260503221809 60 326 4.3 7.0 0.00 0.00 0.00 31 1017.2
20260503221307 60 309 4.3 6.1 0.00 0.00 0.00 30 1017.0
20260503220802 60 287 2.6 4.3 0.00 0.00 0.00 28 1017.2
20260503220300 61 234 1.7 3.5 0.00 0.00 0.00 27 1017.0
20260503215756 61 321 2.6 3.5 0.00 0.00 0.00 31 1017.0
20260503215253 60 307 1.7 6.1 0.00 0.00 0.00 31 1017.3
20260503214751 61 319 2.6 4.3 0.00 0.00 0.00 29 1017.3
20260503214248 61 322 3.5 7.0 0.00 0.00 0.00 28 1017.2
20260503213746 61 291 3.5 4.3 0.00 0.00 0.00 29 1017.4
20260503213243 62 225 1.7 6.1 0.00 0.00 0.00 28 1017.4
20260503212740 60 333 2.6 7.8 0.00 0.00 0.00 28 1017.3
20260503212238 60 346 6.1 8.7 0.00 0.00 0.00 29 1017.2
20260503211735 60 174 2.6 4.3 0.00 0.00 0.00 28 1017.4
20260503211231 60 351 6.1 7.0 0.00 0.00 0.00 28 1017.5
20260503210727 60 238 2.6 5.2 0.00 0.00 0.00 27 1017.7
20260503210225 60 353 4.3 4.3 0.00 0.00 0.00 27 1017.6
20260503205720 60 355 5.2 7.8 0.00 0.00 0.00 28 1017.6
20260503205216 59 323 1.7 6.1 0.00 0.00 0.00 28 1017.5
20260503204712 59 300 4.3 6.1 0.00 0.00 0.00 30 1017.6
20260503204210 61 304 3.5 7.0 0.00 0.00 0.00 28 1017.7
20260503203707 61 193 2.6 4.3 0.00 0.00 0.00 28 1017.6
20260503203205 60 315 3.5 3.5 0.00 0.00 0.00 31 1017.9
20260503202702 60 340 1.7 6.1 0.00 0.00 0.00 30 1017.8
20260503202200 61 158 5.2 5.2 0.00 0.00 0.00 29 1017.8
20260503201657 62 106 1.7 4.3 0.00 0.00 0.00 26 1017.7
20260503201155 62 170 2.6 5.2 0.00 0.00 0.00 28 1017.9
20260503200650 61 214 0.0 7.8 0.00 0.00 0.00 27 1018.2
20260503200147 61 231 2.6 5.2 0.00 0.00 0.00 26 1018.3
20260503195644 61 292 3.5 5.2 0.00 0.00 0.00 29 1018.4
20260503195141 62 257 1.7 6.1 0.00 0.00 0.00 28 1018.5
20260503194638 60 251 1.7 7.8 0.00 0.00 0.00 28 1018.5
20260503194133 59 343 3.5 5.2 0.00 0.00 0.00 29 1018.5
20260503193631 61 291 4.3 4.3 0.00 0.00 0.00 31 1018.7
20260503193126 62 322 7.8 8.7 0.00 0.00 0.00 28 1018.6
20260503192622 61 182 2.6 7.8 0.00 0.00 0.00 30 1018.8
20260503192118 62 220 1.7 5.2 0.00 0.00 0.00 29 1018.8
20260503191615 61 217 1.7 5.2 0.00 0.00 0.00 26 1018.6
20260503191111 59 322 3.5 3.5 0.00 0.00 0.00 29 1018.7
20260503190609 57 241 4.3 10.4 0.00 0.00 0.00 29 1018.8
20260503190106 58 297 5.2 5.2 0.00 0.00 0.00 30 1018.9
20260503185602 59 306 4.3 6.1 0.00 0.00 0.00 30 1019.0
20260503185102 58 347 6.1 7.8 0.00 0.00 0.00 31 1019.0
20260503184558 59 357 2.6 7.0 0.00 0.00 0.00 30 1019.0
20260503184055 57 339 4.3 7.8 0.00 0.00 0.00 31 1019.6
20260503183551 59 313 4.3 7.0 0.00 0.00 0.00 31 1019.6
20260503183048 58 301 2.6 7.0 0.00 0.00 0.00 29 1019.5
20260503182547 60 195 4.3 4.3 0.00 0.00 0.00 28 1019.4
20260503182045 59 163 3.5 5.2 0.00 0.00 0.00 30 1019.5
20260503181541 57 316 5.2 9.6 0.00 0.00 0.00 30 1019.8
20260503181037 57 323 5.2 8.7 0.00 0.00 0.00 31 1019.6
20260503180535 60 204 2.6 8.7 0.00 0.00 0.00 34 1019.4
20260503180032 57 281 2.6 6.1 0.00 0.00 0.00 31 1019.6
20260503175529 56 277 3.5 7.8 0.00 0.00 0.00 31 1019.5
20260503175027 57 340 7.8 8.7 0.00 0.00 0.00 32 1019.5
20260503174524 56 327 6.1 7.0 0.00 0.00 0.00 30 1019.6
20260503174020 55 319 5.2 8.7 0.00 0.00 0.00 31 1019.9
20260503173515 55 334 7.8 10.4 0.00 0.00 0.00 31 1019.7
20260503173011 55 296 5.2 5.2 0.00 0.00 0.00 36 1019.6
20260503172509 57 314 7.8 8.7 0.00 0.00 0.00 31 1019.8
20260503172006 56 285 2.6 8.7 0.00 0.00 0.00 31 1019.6
20260503171502 55 345 7.8 8.7 0.00 0.00 0.00 31 1020.0
20260503171000 55 300 4.3 7.8 0.00 0.00 0.00 31 1020.0
20260503170456 55 354 3.5 5.2 0.00 0.00 0.00 33 1020.0
20260503150848 50 195 3.5 7.8 0.00 0.00 0.00 43 1021.1
20260503150344 50 276 5.2 8.7 0.00 0.00 0.00 41 1021.1
20260503140309 44 336 4.3 4.3 0.00 0.00 0.00 50 1021.2
20260503131238 43 285 1.7 4.3 0.00 0.00 0.00 50 1021.2
20260503130736 43 277 1.7 3.5 0.00 0.00 0.00 51 1021.0
20260503130233 43 278 0.0 3.5 0.00 0.00 0.00 52 1021.0
20260503120159 37 221 0.0 1.7 0.00 0.00 0.00 71 1020.7
20260503110627 33 57 0.0 1.7 0.00 0.00 0.00 81 1020.2
20260503110124 33 275 0.9 1.7 0.00 0.00 0.00 81 1020.2
20260503081440 41 342 3.5 4.3 0.00 0.00 0.00 59 1018.0
20260503080937 40 307 0.0 5.2 0.00 0.00 0.00 60 1018.1
20260503080433 41 6 1.7 4.3 0.00 0.00 0.00 61 1018.0
20260503072910 42 357 1.7 5.2 0.00 0.00 0.00 57 1017.9
20260503072407 42 351 5.2 7.8 0.00 0.00 0.00 56 1017.9
20260503071903 41 345 4.3 4.3 0.00 0.00 0.00 57 1017.7
20260503071401 42 340 2.6 3.5 0.00 0.00 0.00 56 1017.8
20260503070856 42 345 3.5 5.2 0.00 0.00 0.00 58 1017.6
20260503070355 42 354 3.5 4.3 0.00 0.00 0.00 58 1017.7
20260503060320 42 229 0.9 5.2 0.00 0.00 0.00 63 1017.7
20260503054808 41 261 0.9 1.7 0.00 0.00 0.00 71 1017.5
20260503054304 41 249 0.0 2.6 0.00 0.00 0.00 70 1017.6
20260503053801 41 340 1.7 1.7 0.00 0.00 0.00 72 1017.7
20260503053300 41 208 0.0 0.9 0.00 0.00 0.00 75 1017.7
20260503052755 41 302 0.0 0.9 0.00 0.00 0.00 74 1017.5
20260503052253 41 285 0.0 2.6 0.00 0.00 0.00 72 1017.8
20260503051748 41 233 0.0 1.7 0.00 0.00 0.00 71 1017.6
20260503051246 41 0 0.0 1.7 0.00 0.00 0.00 69 1017.7
20260503050742 41 212 0.0 1.7 0.00 0.00 0.00 70 1017.5
20260503050238 41 314 0.9 1.7 0.00 0.00 0.00 69 1017.6
20260503045736 42 145 0.9 0.9 0.00 0.00 0.00 70 1017.5
20260503045234 42 311 0.0 1.7 0.00 0.00 0.00 65 1017.8
20260503044730 42 326 0.0 1.7 0.00 0.00 0.00 65 1017.6
20260503044227 42 347 1.7 1.7 0.00 0.00 0.00 67 1017.8
20260503043724 42 150 0.9 1.7 0.00 0.00 0.00 67 1017.9
20260503043221 43 314 0.9 1.7 0.00 0.00 0.00 65 1017.8
20260503042717 43 314 0.0 1.7 0.00 0.00 0.00 64 1017.8
20260503042214 42 343 1.7 1.7 0.00 0.00 0.00 65 1017.8
20260503041710 43 328 1.7 1.7 0.00 0.00 0.00 65 1018.0
20260503041208 43 75 0.0 2.6 0.00 0.00 0.00 64 1017.9
20260503040705 43 290 0.0 1.7 0.00 0.00 0.00 63 1017.8
20260503040203 43 328 2.6 2.6 0.00 0.00 0.00 63 1017.9
20260503035659 44 331 1.7 2.6 0.00 0.00 0.00 62 1017.9
20260503035157 44 329 2.6 3.5 0.00 0.00 0.00 60 1017.9
20260503034654 44 324 2.6 3.5 0.00 0.00 0.00 61 1017.8
20260503034151 44 348 3.5 3.5 0.00 0.00 0.00 61 1017.9
20260503033648 43 355 2.6 3.5 0.00 0.00 0.00 61 1017.7
20260503033146 43 331 2.6 3.5 0.00 0.00 0.00 61 1017.6
20260503032644 43 347 1.7 3.5 0.00 0.00 0.00 61 1017.7
20260503032142 43 345 1.7 3.5 0.00 0.00 0.00 62 1017.8
20260503031639 44 338 1.7 1.7 0.00 0.00 0.00 62 1017.8
20260503031137 44 349 1.7 3.5 0.00 0.00 0.00 61 1017.5
20260503030632 43 338 1.7 3.5 0.00 0.00 0.00 61 1017.4
20260503030130 43 346 2.6 2.6 0.00 0.00 0.00 61 1017.8
20260503025626 43 345 1.7 2.6 0.00 0.00 0.00 61 1017.8
20260503025124 43 345 1.7 1.7 0.00 0.00 0.00 60 1017.8
20260503024620 43 344 1.7 1.7 0.00 0.00 0.00 62 1017.8